Location: Juniper Campground
(35.7953°N, 106.2814°W)
Time: 20:54:19
(UTC-06:00)

Envisat - Pass Details

Date: 21 August 2018
Orbit: 764 x 766 km, 98.2° (Epoch: 24 September)

Event Time Altitude Azimuth Distance (km) Brightness Sun altitude
Rises 20:57:48 0° 191° (S) 3,211 6.1 -14.2°
Reaches altitude 10° 21:00:20 10° 201° (SSW) 2,289 5.4 -14.7°
Maximum altitude 21:04:47 31° 263° (W) 1,307 4.8 -15.5°
Drops below altitude 10° 21:09:17 10° 326° (NW) 2,302 6.5 -16.3°
Sets 21:11:50 0° 336° (NNW) 3,233 7.1 -16.8°
